Location: G�ppingen
(48.7089°N, 9.6563°E)
Time: 02:53:49
(UTC+02:00)

AAUSAT CUBESAT 2 - Visible Passes

Search period start: 21 October 2019 00:00
Search period end: 30 October 2019 23:00
Orbit: 574 x 592 km, 97.5° (Epoch: 19 October)

Date Brightness Start Highest point End Pass type
(mag) Time Alt. Az. Time Alt. Az. Time Alt. Az.
21 Oct ? 18:51:55 10° SSE 18:56:02 69° ENE 19:00:09 10° N visible
21 Oct ? 20:29:59 10° WSW 20:31:55 13° W 20:33:51 10° WNW visible
22 Oct ? 18:57:43 10° SSE 19:01:51 80° ENE 19:06:00 10° N visible
22 Oct ? 20:36:31 10° WSW 20:37:49 11° W 20:39:06 10° WNW visible
23 Oct ? 19:03:32 10° SSE 19:07:41 89° W 19:11:50 10° NNW visible
24 Oct ? 06:43:30 10° ENE 06:44:37 11° E 06:45:44 10° ESE visible
24 Oct ? 19:09:22 10° S 19:13:30 78° W 19:17:38 10° NNW visible
25 Oct ? 06:48:41 10° ENE 06:50:31 13° E 06:52:20 10° ESE visible
25 Oct ? 19:15:14 10° S 19:19:19 67° WSW 19:23:27 10° NNW visible
26 Oct ? 06:54:06 10° NE 06:56:25 14° E 06:58:42 10° ESE visible
26 Oct ? 19:21:06 10° S 19:25:10 58° W 19:29:15 10° NNW visible
27 Oct ? 05:59:38 10° NE 06:02:17 17° E 06:04:56 10° SE visible
27 Oct ? 18:27:00 10° S 18:31:00 50° W 18:35:02 10° NNW visible
28 Oct ? 06:05:13 10° NE 06:08:10 19° E 06:11:07 10° SE visible
28 Oct ? 18:32:55 10° S 18:36:51 43° W 18:40:48 10° NNW visible
29 Oct ? 06:10:51 10° NE 06:14:03 22° E 06:17:13 10° SE visible
29 Oct ? 18:38:52 10° SSW 18:42:42 37° W 18:46:33 10° NNW visible
30 Oct ? 06:16:31 10° NE 06:19:55 24° E 06:23:17 10° SSE visible
30 Oct ? 18:44:50 10° SSW 18:48:33 32° W 18:52:16 10° NNW visible
